Precipitable_Water
1.28 1.19 1.07 0.90 0.76 0.74 0.77 0.75 0.73 0.74 0.80 0.82 0.86 0.84 0.84 0.83 0.80 0.79 0.81 0.89 1.09 0.90 0.81 0.85 0.80 0.77 0.72 0.74 0.68 0.72 0.68 0.69 0.67 0.70 0.66 0.68 0.66 0.67 0.73 0.81 0.95 0.98 1.00
1.40 1.24 1.16 1.06 0.82 0.74 0.78 0.78 0.75 0.76 0.79 0.81 0.81 0.85 0.85 0.83 0.80 0.78 0.78 0.93 1.03 0.87 0.85 0.86 0.79 0.77 0.75 0.73 0.69 0.69 0.69 0.71 0.66 0.69 0.67 0.69 0.66 0.67 0.69 0.75 0.87 0.94 0.98
1.56 1.49 1.26 1.13 0.95 0.79 0.73 0.78 0.82 0.82 0.80 0.79 0.79 0.84 0.85 0.82 0.79 0.75 0.75 0.87 0.89 0.85 0.84 0.87 0.83 0.79 0.75 0.73 0.68 0.69 0.69 0.68 0.68 0.69 0.69 0.70 0.68 0.69 0.69 0.72 0.79 0.89 0.96
1.57 1.49 1.47 1.28 1.14 0.87 0.76 0.75 0.76 0.80 0.79 0.80 0.78 0.81 0.81 0.80 0.82 0.74 0.74 0.77 0.84 0.87 0.87 0.80 0.80 0.80 0.75 0.73 0.71 0.67 0.65 0.68 0.69 0.67 0.69 0.65 0.70 0.71 0.73 0.69 0.75 0.81 0.93
1.60 1.49 1.45 1.41 1.31 1.01 0.81 0.78 0.76 0.76 0.76 0.81 0.81 0.78 0.81 0.79 0.82 0.77 0.77 0.76 0.80 0.79 0.78 0.78 0.76 0.78 0.75 0.75 0.71 0.67 0.64 0.65 0.65 0.68 0.69 0.65 0.70 0.69 0.71 0.75 0.75 0.77 0.85
1.39 1.52 1.44 1.36 1.35 1.17 0.89 0.81 0.77 0.80 0.77 0.81 0.80 0.77 0.80 0.81 0.81 0.80 0.79 0.79 0.81 0.81 0.77 0.71 0.68 0.68 0.76 0.72 0.71 0.68 0.63 0.62 0.64 0.72 0.68 0.66 0.69 0.69 0.70 0.75 0.80 0.77 0.77
1.16 1.35 1.44 1.41 1.38 1.21 1.00 0.86 0.81 0.77 0.79 0.84 0.76 0.76 0.79 0.82 0.79 0.80 0.80 0.79 0.81 0.77 0.74 0.71 0.68 0.66 0.69 0.74 0.70 0.67 0.65 0.61 0.61 0.63 0.66 0.68 0.67 0.69 0.72 0.75 0.76 0.78 0.73
0.98 1.07 1.20 1.35 1.34 1.23 1.07 0.94 0.83 0.77 0.80 0.86 0.73 0.70 0.58 0.68 0.76 0.79 0.77 0.77 0.79 0.80 0.72 0.66 0.64 0.64 0.66 0.68 0.65 0.65 0.65 0.65 0.62 0.65 0.67 0.68 0.66 0.68 0.68 0.73 0.77 0.75 0.75
0.88 0.92 0.99 1.23 1.28 1.28 1.12 0.99 0.92 0.74 0.68 0.84 0.81 0.69 0.54 0.49 0.60 0.73 0.72 0.74 0.74 0.77 0.76 0.65 0.58 0.60 0.63 0.65 0.62 0.60 0.61 0.68 0.65 0.66 0.66 0.67 0.66 0.67 0.69 0.73 0.72 0.70 0.72
0.88 0.91 0.95 0.97 1.17 1.28 1.15 1.06 0.98 0.81 0.77 0.71 0.81 0.77 0.72 0.63 0.52 0.50 0.66 0.69 0.73 0.73 0.76 0.67 0.57 0.54 0.53 0.57 0.59 0.58 0.62 0.66 0.68 0.71 0.68 0.64 0.65 0.67 0.73 0.69 0.70 0.69 0.71
1.14 1.13 1.00 0.95 0.93 1.00 1.11 1.09 0.98 0.89 0.88 0.79 0.75 0.68 0.67 0.65 0.63 0.54 0.44 0.54 0.67 0.72 0.74 0.70 0.62 0.60 0.58 0.55 0.51 0.52 0.62 0.65 0.68 0.67 0.68 0.67 0.65 0.68 0.67 0.65 0.66 0.65 0.65
1.21 1.26 1.28 1.13 0.97 0.90 0.91 1.09 0.99 0.98 0.89 0.84 0.80 0.73 0.66 0.58 0.53 0.45 0.39 0.41 0.50 0.65 0.71 0.72 0.66 0.64 0.63 0.59 0.59 0.53 0.55 0.65 0.69 0.67 0.69 0.71 0.69 0.68 0.69 0.65 0.63 0.62 0.62
1.19 1.23 1.27 1.23 1.10 0.90 0.84 1.07 0.90 0.96 0.91 0.86 0.79 0.74 0.74 0.71 0.64 0.50 0.40 0.40 0.44 0.56 0.64 0.70 0.67 0.68 0.67 0.64 0.61 0.58 0.52 0.65 0.67 0.68 0.68 0.73 0.69 0.64 0.68 0.67 0.64 0.61 0.59
1.22 1.23 1.23 1.22 1.11 0.95 0.89 1.06 0.85 0.82 0.91 0.86 0.81 0.79 0.77 0.75 0.70 0.58 0.46 0.43 0.41 0.47 0.55 0.57 0.66 0.66 0.68 0.68 0.66 0.64 0.59 0.56 0.66 0.68 0.67 0.70 0.66 0.64 0.65 0.65 0.62 0.58 0.54
1.06 1.05 1.13 1.13 1.13 1.03 0.90 0.95 0.77 0.75 0.82 0.78 0.77 0.81 0.81 0.78 0.73 0.68 0.66 0.62 0.53 0.42 0.45 0.53 0.55 0.62 0.66 0.69 0.69 0.68 0.67 0.61 0.64 0.69 0.68 0.68 0.66 0.61 0.61 0.62 0.60 0.56 0.52
0.97 1.01 1.13 1.13 1.03 0.92 0.93 0.99 0.73 0.74 0.74 0.73 0.75 0.79 0.82 0.79 0.77 0.75 0.74 0.70 0.65 0.56 0.47 0.55 0.58 0.63 0.65 0.68 0.71 0.69 0.69 0.68 0.64 0.67 0.70 0.69 0.67 0.64 0.62 0.63 0.61 0.57 0.53
0.93 0.98 1.05 1.06 1.03 1.02 0.99 0.84 0.69 0.70 0.70 0.74 0.77 0.74 0.76 0.77 0.76 0.75 0.76 0.73 0.68 0.64 0.56 0.61 0.67 0.75 0.76 0.73 0.74 0.78 0.78 0.78 0.76 0.74 0.75 0.73 0.71 0.69 0.65 0.63 0.62 0.60 0.53
1.06 1.10 1.06 1.07 1.10 1.00 0.95 0.81 0.75 0.78 0.76 0.71 0.68 0.70 0.72 0.75 0.74 0.76 0.74 0.71 0.70 0.70 0.66 0.61 0.68 0.74 0.82 0.85 0.82 0.81 0.82 0.85 0.84 0.85 0.87 0.87 0.84 0.80 0.76 0.72 0.66 0.63 0.57
1.06 1.05 1.10 1.09 1.04 0.97 0.82 0.76 0.73 0.69 0.67 0.66 0.68 0.70 0.68 0.71 0.72 0.71 0.72 0.71 0.73 0.75 0.72 0.67 0.67 0.76 0.83 0.88 0.87 0.87 0.87 0.90 0.92 0.93 0.96 0.96 0.94 0.91 0.87 0.83 0.77 0.72 0.64
1.09 1.08 1.09 1.04 0.93 0.82 0.77 0.73 0.70 0.69 0.71 0.71 0.70 0.69 0.70 0.69 0.67 0.69 0.70 0.72 0.74 0.73 0.72 0.71 0.71 0.74 0.78 0.85 0.88 0.84 0.84 0.92 0.93 0.97 0.99 1.01 1.00 0.98 0.93 0.89 0.85 0.78 0.71
1.07 1.03 1.02 0.88 0.82 0.79 0.75 0.73 0.71 0.68 0.65 0.65 0.67 0.68 0.69 0.70 0.71 0.72 0.71 0.70 0.72 0.75 0.73 0.70 0.69 0.70 0.73 0.81 0.83 0.89 0.86 0.90 0.96 0.98 0.97 0.98 0.98 0.95 0.96 0.95 0.92 0.87 0.80
1.14 1.08 0.92 0.84 0.80 0.77 0.75 0.74 0.71 0.68 0.68 0.66 0.64 0.67 0.69 0.71 0.71 0.72 0.72 0.71 0.72 0.70 0.67 0.66 0.65 0.64 0.70 0.78 0.84 0.85 0.87 0.87 0.84 1.03 0.99 0.97 1.02 0.97 0.99 0.97 0.93 0.92 0.85
1.06 1.05 1.06 1.09 1.00 0.86 0.81 0.78 0.76 0.75 0.70 0.67 0.66 0.66 0.67 0.69 0.70 0.71 0.74 0.80 0.82 0.80 0.80 0.76 0.74 0.74 0.75 0.78 0.82 0.85 0.88 0.90 0.91 0.97 0.98 0.95 1.04 0.99 1.02 1.01 1.00 0.98 0.93
0.96 1.07 1.05 1.09 1.06 1.11 1.09 1.01 0.98 0.97 0.92 0.88 0.82 0.80 0.82 0.87 0.90 0.95 1.02 1.03 0.99 1.01 1.02 0.99 0.98 1.02 1.02 1.04 0.99 0.94 0.92 0.97 0.95 0.96 1.01 0.92 1.04 0.99 1.03 1.02 1.02 1.00 0.97
0.95 1.00 1.10 1.08 1.06 1.13 1.15 1.13 1.13 1.09 1.10 1.12 1.14 1.15 1.15 1.13 1.14 1.14 1.09 1.07 1.09 1.14 1.20 1.22 1.22 1.21 1.20 1.18 1.16 1.10 1.02 0.98 0.93 0.96 1.03 0.97 0.97 0.96 0.97 0.96 0.98 1.00 0.99
1.02 1.05 1.06 1.12 1.11 1.14 1.14 1.16 1.15 1.12 1.08 1.09 1.12 1.15 1.16 1.15 1.16 1.17 1.12 1.09 1.03 1.08 1.12 1.13 1.14 1.16 1.17 1.16 1.15 1.12 1.06 0.96 0.93 0.89 0.99 0.91 0.90 0.88 0.81 0.90 0.92 0.94 0.94
Wind_Speed
27 25 24 23 22 22 23 22 22 21 20 19 18 17 15 12 10 8 7 5 4 3 3 3 3 3 4 4 4 4 4 5 5 7 8 8 9 10 10 12 15 16 18
29 29 27 25 24 24 24 24 24 23 22 21 20 19 17 14 12 10 9 7 5 4 4 3 3 3 5 3 2 2 3 3 4 5 7 7 8 9 9 10 12 14 16
30 30 30 29 27 26 26 26 26 25 24 23 22 20 18 16 14 12 11 9 6 4 4 4 4 4 4 3 2 1 1 2 3 4 5 6 7 8 9 9 10 12 14
35 32 30 30 30 29 29 28 28 27 26 25 24 22 21 19 16 14 12 10 7 6 5 5 5 4 5 4 3 2 1 1 2 3 5 6 7 7 8 8 8 10 13
36 36 36 33 32 32 32 31 30 30 28 27 26 24 23 21 18 16 14 12 10 8 7 6 6 5 5 5 4 3 2 2 2 3 4 5 6 6 6 7 8 9 10
37 35 35 35 35 34 34 33 34 32 31 29 27 26 24 23 21 19 17 15 12 10 9 8 7 7 6 6 5 4 4 3 3 2 4 4 4 5 5 6 7 9 9
38 39 39 38 37 38 36 36 36 35 33 32 29 27 26 25 23 21 19 17 15 12 11 10 10 9 8 7 6 6 5 5 4 4 4 4 4 4 4 5 7 8 9
39 41 42 40 40 40 40 39 38 37 36 36 32 29 27 25 25 23 22 20 18 15 13 13 12 11 10 9 8 7 7 6 6 5 5 4 4 4 5 5 6 8 9
40 42 44 44 44 43 44 42 41 40 38 38 35 31 27 26 25 25 25 23 21 19 16 15 14 13 13 12 11 10 9 8 8 7 7 6 6 6 6 6 7 8 9
40 43 45 48 48 45 45 47 45 43 41 40 38 34 30 27 26 24 26 25 24 22 19 17 16 15 15 14 13 12 11 10 10 9 9 9 9 8 8 8 9 9 10
41 43 47 49 49 49 48 49 49 47 44 42 40 36 32 28 26 24 23 24 26 24 22 20 19 18 17 16 15 15 14 13 12 12 11 11 11 11 11 11 11 11 12
42 43 47 51 52 52 52 52 51 50 47 44 42 39 35 31 29 25 23 21 23 24 25 23 22 20 19 18 17 17 17 16 15 14 14 14 13 13 13 13 13 13 13
46 48 49 52 52 50 50 52 52 51 49 46 43 40 38 35 32 27 23 21 20 21 22 25 24 23 22 20 20 19 18 18 18 18 17 17 16 16 16 16 16 16 16
44 43 46 49 50 50 51 52 50 50 49 46 44 42 40 37 35 31 26 23 20 20 21 22 23 25 24 23 22 21 20 20 20 20 20 20 19 19 19 19 19 18 18
33 36 41 43 45 48 49 50 49 49 48 46 44 43 42 39 37 35 31 28 25 22 22 21 22 23 24 24 23 22 22 22 22 22 22 22 22 22 22 22 21 21 21
25 26 32 38 40 46 45 47 47 47 47 46 44 43 42 40 38 36 34 31 28 26 24 23 21 21 22 23 24 24 24 23 24 24 24 24 24 24 24 24 24 24 24
23 24 29 32 36 41 42 44 45 46 46 45 44 43 42 40 39 37 35 33 31 29 27 26 26 25 24 24 24 25 25 25 25 25 26 26 26 26 26 27 27 27 26
24 27 29 33 34 37 40 42 43 43 43 42 42 42 41 40 39 38 36 35 33 32 30 30 28 28 28 27 27 27 27 27 28 28 28 28 28 28 28 28 29 29 29
27 28 29 32 34 38 39 40 41 41 41 41 41 41 41 40 39 38 37 36 35 34 33 32 31 30 30 29 29 30 30 30 30 30 30 30 31 31 31 31 31 31 31
28 30 30 31 33 35 36 38 39 39 40 40 40 40 39 39 39 38 38 37 37 36 36 35 35 33 32 31 31 31 32 33 33 34 34 33 34 34 34 34 33 33 33
26 28 30 32 33 34 36 36 37 37 38 37 37 38 38 38 38 38 38 38 38 38 37 36 36 35 35 35 35 34 35 35 36 36 36 36 36 36 36 36 35 35 35
21 29 31 31 33 33 34 35 36 36 37 37 37 37 38 38 38 38 38 38 39 38 38 38 38 37 38 38 37 37 38 37 38 39 39 39 38 39 39 39 39 37 37
19 24 28 30 34 34 33 34 34 35 37 38 38 38 38 38 38 38 39 40 40 40 41 41 40 40 40 40 40 41 41 41 41 39 40 41 41 41 41 40 39 38 38
18 22 28 25 27 32 33 34 34 33 34 37 38 38 38 38 38 39 39 39 40 40 41 42 43 41 42 41 43 42 42 41 41 41 42 41 40 40 40 41 42 40 40
18 19 23 22 21 27 29 32 33 32 32 33 35 36 35 37 38 38 37 37 38 40 37 36 38 38 39 39 39 38 39 39 40 39 39 39 40 41 41 42 43 43 42
19 17 19 23 22 23 23 25 25 23 23 24 25 27 28 29 30 31 32 30 29 29 30 32 33 35 37 37 37 38 39 39 38 38 39 39 39 38 39 40 41 42 42
Wind_Direction
225 224 223 222 221 218 216 215 213 211 208 207 207 205 204 204 200 198 192 188 170 184 170 164 153 149 147 125 101 84 71 63 54 45 41 38 36 33 35 32 33 33 34
226 226 225 225 224 222 219 218 215 213 212 211 208 207 208 209 205 204 201 198 193 192 183 181 172 166 167 155 124 91 71 56 46 38 36 32 31 31 31 32 33 33 33
226 226 226 226 226 224 221 219 217 215 214 212 211 209 209 210 208 206 204 205 207 207 198 192 189 188 186 184 173 142 66 40 32 27 26 24 27 28 28 29 32 31 31
229 227 228 227 227 225 222 220 219 217 215 214 213 213 211 210 210 208 207 208 211 209 204 206 206 203 198 205 212 224 257 344 2 12 14 15 19 22 25 27 28 26 28
230 232 231 230 228 227 224 222 220 218 216 215 215 214 213 212 212 211 212 213 216 221 219 214 211 210 211 217 229 242 253 276 312 346 360 7 11 15 19 25 24 22 22
230 230 230 229 228 227 226 224 221 220 218 216 215 215 215 215 214 216 217 219 223 227 225 222 220 222 223 226 233 242 258 264 280 315 339 351 359 6 12 14 17 16 13
233 233 233 231 231 229 226 224 221 218 218 216 215 215 217 218 218 219 221 223 226 229 229 229 229 228 231 229 239 246 256 262 266 283 308 329 339 347 353 359 1 3 4
236 235 234 233 232 229 226 223 220 219 219 216 217 216 219 221 222 222 224 226 227 231 233 234 233 233 234 236 244 247 255 262 264 270 284 301 316 326 330 339 346 352 356
238 238 236 233 231 231 227 222 221 219 218 216 216 219 220 223 221 224 226 228 229 232 235 236 236 235 236 240 245 250 254 259 261 265 274 281 290 299 309 318 325 332 340
241 240 237 233 232 229 228 224 221 220 217 217 216 219 221 221 222 225 228 229 231 232 235 237 237 238 240 242 245 248 252 256 258 262 270 275 282 285 293 301 309 316 324
245 244 240 235 230 229 228 224 222 219 217 217 216 217 218 220 221 226 227 229 231 233 234 237 238 240 241 243 247 249 250 255 258 263 268 271 275 280 285 291 297 303 309
248 247 241 235 231 231 230 224 218 217 217 216 216 217 218 219 221 224 227 230 231 234 235 237 239 242 244 246 248 250 250 254 258 262 266 269 273 277 280 285 290 294 299
251 252 242 233 230 229 225 219 216 216 216 215 216 217 219 220 222 223 225 228 232 234 237 239 240 243 245 247 250 251 253 254 258 261 265 267 271 274 277 281 285 288 292
253 245 237 231 225 223 219 215 214 213 213 215 216 217 219 220 222 223 225 228 234 236 239 242 241 243 245 247 250 252 255 256 259 261 264 267 270 273 276 278 281 284 286
246 242 229 219 220 216 213 212 212 212 212 215 217 218 219 221 223 225 230 233 236 238 241 244 244 245 245 248 251 253 256 258 260 262 264 267 269 273 274 276 278 280 283
237 226 208 209 213 208 210 211 209 210 211 214 216 218 219 221 224 227 231 234 236 238 242 244 246 249 250 249 251 254 257 260 262 263 265 266 269 272 273 274 275 279 281
211 202 202 204 198 202 203 205 205 209 211 214 217 218 220 222 225 228 231 234 237 240 243 247 250 251 254 255 254 256 258 260 263 264 265 267 270 272 274 274 275 277 278
210 204 196 194 199 200 201 203 206 209 212 214 216 218 221 224 226 229 233 235 238 241 244 248 250 252 255 258 259 258 259 262 264 265 267 268 271 273 274 274 275 276 277
205 199 204 205 202 201 204 205 208 210 213 216 218 220 222 225 228 231 234 237 240 243 245 248 250 254 256 258 261 261 262 262 264 267 268 269 270 272 274 274 275 275 275
207 211 208 204 205 206 207 208 211 213 215 217 218 221 224 227 230 233 236 239 241 244 246 248 252 255 257 260 262 263 263 263 266 267 269 270 270 272 273 274 274 274 275
212 210 212 210 210 209 210 211 213 215 216 219 222 224 227 230 233 235 238 241 243 248 249 251 253 256 258 260 263 263 264 265 266 268 271 269 271 272 272 273 273 274 273
214 215 213 213 213 213 213 214 216 218 220 222 225 227 230 233 235 238 241 244 247 247 250 253 256 257 259 262 263 264 265 268 270 268 269 270 270 272 272 273 273 273 272
219 212 212 217 217 217 217 218 220 223 224 225 227 230 233 235 238 241 243 248 251 251 254 255 257 259 261 261 263 264 265 267 269 271 269 271 272 271 271 270 271 273 272
222 215 215 218 219 219 222 223 224 227 230 232 234 235 237 240 242 245 248 250 252 253 255 257 259 261 262 264 265 265 265 267 269 270 271 272 271 272 272 270 270 271 272
220 218 213 210 211 215 222 227 227 230 233 233 234 235 239 241 244 245 248 251 254 256 257 255 259 260 262 264 265 265 265 268 270 270 269 271 273 273 273 272 270 271 271
217 213 209 214 215 210 214 213 214 219 226 225 225 231 233 237 242 243 243 246 249 251 255 259 262 263 264 265 265 264 267 267 269 271 271 270 273 274 275 273 272 271 270